Time,TemperatureF,DewpointF,PressureIn,WindDirection,WindDirectionDegrees,WindSpeedMPH,WindSpeedGustMPH,Humidity,HourlyPrecipIn,Conditions,Clouds,dailyrainin,SoftwareType,DateUTC
2013-04-12 00:00:00,71.3,68.5,29.34,SW,215,3.0,7.0,91,0.40,,---,0.00,VWS V14.01,2013-04-12 04:00:00,
2013-04-12 00:05:00,71.2,68.4,29.35,SSW,206,7.0,9.0,91,0.41,,---,0.01,VWS V14.01,2013-04-12 04:05:00,
2013-04-12 00:10:00,71.4,69.3,29.36,SW,227,5.0,13.0,93,0.45,,---,0.05,VWS V14.01,2013-04-12 04:10:00,
2013-04-12 00:15:00,71.6,69.5,29.35,SW,231,6.0,13.0,93,0.47,,---,0.07,VWS V14.01,2013-04-12 04:15:00,
2013-04-12 00:20:00,71.8,70.0,29.36,SW,214,3.0,13.0,94,0.47,,---,0.07,VWS V14.01,2013-04-12 04:20:00,
2013-04-12 00:25:00,71.9,70.1,29.36,SSW,210,2.0,13.0,94,0.47,,---,0.07,VWS V14.01,2013-04-12 04:25:00,
2013-04-12 00:30:00,72.0,70.2,29.36,SSW,198,6.0,10.0,94,0.46,,---,0.07,VWS V14.01,2013-04-12 04:30:00,
2013-04-12 00:35:00,72.0,70.2,29.37,SW,229,4.0,11.0,94,0.50,,---,0.11,VWS V14.01,2013-04-12 04:35:00,
2013-04-12 00:40:00,71.6,69.2,29.37,WSW,243,21.0,21.0,92,0.54,,---,0.15,VWS V14.01,2013-04-12 04:40:00,
2013-04-12 00:45:00,71.3,68.9,29.37,SSW,203,6.0,23.0,92,0.58,,---,0.19,VWS V14.01,2013-04-12 04:45:00,
2013-04-12 00:50:00,71.3,69.2,29.37,WSW,240,5.0,23.0,93,0.60,,---,0.21,VWS V14.01,2013-04-12 04:50:00,
2013-04-12 00:55:00,71.2,69.1,29.37,WSW,244,12.0,23.0,93,0.61,,---,0.22,VWS V14.01,2013-04-12 04:55:00,
2013-04-12 01:00:00,70.8,68.4,29.37,WSW,240,10.0,17.0,92,0.23,,---,0.23,VWS V14.01,2013-04-12 05:00:00,
2013-04-12 01:05:00,70.5,68.1,29.37,SSW,196,10.0,17.0,92,0.25,,---,0.25,VWS V14.01,2013-04-12 05:05:00,
2013-04-12 01:10:00,70.0,67.3,29.39,SSW,204,7.0,18.0,91,0.31,,---,0.31,VWS V14.01,2013-04-12 05:10:00,
2013-04-12 01:15:00,69.3,66.2,29.37,SSE,167,13.0,19.0,90,0.41,,---,0.41,VWS V14.01,2013-04-12 05:15:00,
2013-04-12 01:20:00,68.5,65.5,29.30,SSE,168,3.0,19.0,90,0.43,,---,0.43,VWS V14.01,2013-04-12 05:20:00,
2013-04-12 01:25:00,68.3,65.6,29.30,South,191,3.0,19.0,91,0.43,,---,0.43,VWS V14.01,2013-04-12 05:25:00,
2013-04-12 01:30:00,68.2,65.5,29.31,SSW,204,7.0,7.0,91,0.36,,---,0.43,VWS V14.01,2013-04-12 05:30:00,
2013-04-12 01:35:00,68.3,65.6,29.31,ESE,123,14.0,15.0,91,0.37,,---,0.44,VWS V14.01,2013-04-12 05:35:00,
2013-04-12 01:40:00,68.4,65.4,29.30,SSW,204,4.0,15.0,90,0.37,,---,0.44,VWS V14.01,2013-04-12 05:40:00,
2013-04-12 01:45:00,68.5,65.5,29.31,SW,223,5.0,15.0,90,0.37,,---,0.44,VWS V14.01,2013-04-12 05:45:00,
2013-04-12 01:50:00,68.7,65.3,29.32,SW,226,3.0,15.0,89,0.37,,---,0.44,VWS V14.01,2013-04-12 05:50:00,
2013-04-12 01:55:00,68.7,65.3,29.31,SSW,208,4.0,15.0,89,0.37,,---,0.44,VWS V14.01,2013-04-12 05:55:00,
2013-04-12 02:00:00,68.7,65.3,29.30,SSE,159,2.0,5.0,89,0.21,,---,0.44,VWS V14.01,2013-04-12 06:00:00,
2013-04-12 02:05:00,68.7,65.3,29.30,SSE,159,5.0,8.0,89,0.21,,---,0.44,VWS V14.01,2013-04-12 06:05:00,
2013-04-12 02:09:00,68.7,65.7,29.30,South,182,1.0,8.0,90,0.21,,---,0.44,VWS V14.01,2013-04-12 06:09:00,
2013-04-12 02:14:00,68.6,65.6,29.31,SSW,193,3.0,8.0,90,0.21,,---,0.44,VWS V14.01,2013-04-12 06:14:00,
2013-04-12 02:19:00,68.6,65.6,29.30,SSW,204,1.0,8.0,90,0.21,,---,0.44,VWS V14.01,2013-04-12 06:19:00,
2013-04-12 02:24:00,68.6,65.9,29.30,South,190,1.0,8.0,91,0.21,,---,0.44,VWS V14.01,2013-04-12 06:24:00,
2013-04-12 02:29:00,68.6,65.9,29.30,SSW,195,6.0,6.0,91,0.01,,---,0.44,VWS V14.01,2013-04-12 06:29:00,
2013-04-12 02:30:00,68.6,65.9,29.29,SSW,202,3.0,8.0,91,0.21,,---,0.83,VWS V14.01,2013-04-12 06:30:00,
2013-04-12 02:34:00,68.6,65.9,29.30,South,190,2.0,6.0,91,0.01,,---,0.44,VWS V14.01,2013-04-12 06:34:00,
2013-04-12 02:39:00,68.7,66.0,29.30,SSW,203,6.0,8.0,91,0.01,,---,0.44,VWS V14.01,2013-04-12 06:39:00,
2013-04-12 02:44:00,68.8,66.4,29.30,South,189,2.0,8.0,92,0.01,,---,0.44,VWS V14.01,2013-04-12 06:44:00,
2013-04-12 02:49:00,68.9,66.5,29.30,SSE,166,1.0,8.0,92,0.01,,---,0.44,VWS V14.01,2013-04-12 06:49:00,
2013-04-12 02:54:00,69.0,66.6,29.30,SW,216,1.0,9.0,92,0.01,,---,0.44,VWS V14.01,2013-04-12 06:54:00,
2013-04-12 02:59:00,69.2,66.8,29.29,SW,220,2.0,2.0,92,0.00,,---,0.44,VWS V14.01,2013-04-12 06:59:00,
2013-04-12 03:00:00,69.1,66.7,29.29,South,180,3.0,9.0,92,0.01,,---,0.83,VWS V14.01,2013-04-12 07:00:00,
2013-04-12 03:04:00,69.3,67.2,29.29,SSW,205,2.0,9.0,93,0.00,,---,0.44,VWS V14.01,2013-04-12 07:04:00,
2013-04-12 03:09:00,69.4,67.3,29.29,SW,223,6.0,9.0,93,0.00,,---,0.44,VWS V14.01,2013-04-12 07:09:00,
2013-04-12 03:14:00,69.5,67.4,29.28,SSW,195,4.0,9.0,93,0.00,,---,0.44,VWS V14.01,2013-04-12 07:14:00,
2013-04-12 03:19:00,69.7,67.3,29.28,SSW,211,5.0,10.0,92,0.00,,---,0.44,VWS V14.01,2013-04-12 07:19:00,
2013-04-12 03:24:00,69.8,67.4,29.28,South,182,7.0,10.0,92,0.00,,---,0.44,VWS V14.01,2013-04-12 07:24:00,
2013-04-12 03:29:00,69.8,67.4,29.28,South,190,6.0,7.0,92,0.00,,---,0.44,VWS V14.01,2013-04-12 07:29:00,
2013-04-12 03:30:00,69.8,67.4,29.28,SSW,202,4.0,12.0,92,0.00,,---,0.83,VWS V14.01,2013-04-12 07:30:00,
2013-04-12 03:34:00,69.8,67.4,29.28,SSW,209,4.0,11.0,92,0.00,,---,0.44,VWS V14.01,2013-04-12 07:34:00,
2013-04-12 03:39:00,69.8,67.4,29.28,ESE,122,3.0,11.0,92,0.00,,---,0.44,VWS V14.01,2013-04-12 07:39:00,
2013-04-12 03:44:00,69.8,67.4,29.28,SSW,202,3.0,11.0,92,0.00,,---,0.44,VWS V14.01,2013-04-12 07:44:00,
2013-04-12 03:49:00,69.8,67.4,29.28,SSE,162,3.0,11.0,92,0.00,,---,0.44,VWS V14.01,2013-04-12 07:49:00,
2013-04-12 03:54:00,69.8,67.4,29.28,South,184,3.0,11.0,92,0.00,,---,0.44,VWS V14.01,2013-04-12 07:54:00,
2013-04-12 03:59:00,69.7,67.3,29.28,SW,215,4.0,6.0,92,0.00,,---,0.44,VWS V14.01,2013-04-12 07:59:00,
2013-04-12 04:00:00,69.7,67.3,29.28,SSW,202,4.0,11.0,92,0.00,,---,0.83,VWS V14.01,2013-04-12 08:00:00,
2013-04-12 04:04:00,69.7,67.3,29.28,South,186,8.0,9.0,92,0.00,,---,0.44,VWS V14.01,2013-04-12 08:04:00,
2013-04-12 04:09:00,69.7,67.3,29.28,South,188,0.0,9.0,92,0.00,,---,0.44,VWS V14.01,2013-04-12 08:09:00,
2013-04-12 04:14:00,69.7,67.3,29.28,South,171,0.0,10.0,92,0.00,,---,0.44,VWS V14.01,2013-04-12 08:14:00,
2013-04-12 04:19:00,69.6,67.2,29.28,SW,227,4.0,10.0,92,0.00,,---,0.44,VWS V14.01,2013-04-12 08:19:00,
2013-04-12 04:24:00,69.5,67.1,29.29,SSW,198,1.0,10.0,92,0.00,,---,0.44,VWS V14.01,2013-04-12 08:24:00,
2013-04-12 04:29:00,69.5,67.4,29.29,South,189,3.0,7.0,93,0.00,,---,0.44,VWS V14.01,2013-04-12 08:29:00,
2013-04-12 04:30:00,69.5,67.4,29.29,South,180,3.0,11.0,93,0.00,,---,0.83,VWS V14.01,2013-04-12 08:30:00,
2013-04-12 04:34:00,69.6,67.5,29.29,South,191,0.0,7.0,93,0.00,,---,0.44,VWS V14.01,2013-04-12 08:34:00,
2013-04-12 04:39:00,69.5,67.4,29.29,South,180,0.0,7.0,93,0.00,,---,0.44,VWS V14.01,2013-04-12 08:39:00,
2013-04-12 04:44:00,69.6,67.5,29.29,SSW,207,1.0,7.0,93,0.00,,---,0.44,VWS V14.01,2013-04-12 08:44:00,
2013-04-12 04:49:00,69.6,67.5,29.30,SSW,211,4.0,7.0,93,0.00,,---,0.44,VWS V14.01,2013-04-12 08:49:00,
2013-04-12 04:54:00,69.6,67.5,29.30,South,185,9.0,12.0,93,0.00,,---,0.44,VWS V14.01,2013-04-12 08:54:00,
2013-04-12 04:59:00,69.7,67.6,29.29,SSW,209,5.0,7.0,93,0.00,,---,0.44,VWS V14.01,2013-04-12 08:59:00,
2013-04-12 05:00:00,69.7,67.6,29.29,SSW,202,3.0,12.0,93,0.00,,---,0.83,VWS V14.01,2013-04-12 09:00:00,
2013-04-12 05:04:00,69.7,67.6,29.29,South,190,2.0,7.0,93,0.00,,---,0.44,VWS V14.01,2013-04-12 09:04:00,
2013-04-12 05:09:00,69.8,67.7,29.29,SSW,194,4.0,8.0,93,0.00,,---,0.44,VWS V14.01,2013-04-12 09:09:00,
2013-04-12 05:14:00,69.9,67.8,29.29,SW,225,5.0,8.0,93,0.00,,---,0.44,VWS V14.01,2013-04-12 09:14:00,
2013-04-12 05:19:00,69.9,67.8,29.29,SSW,206,5.0,9.0,93,0.00,,---,0.44,VWS V14.01,2013-04-12 09:19:00,
2013-04-12 05:24:00,70.0,67.9,29.29,WSW,237,3.0,9.0,93,0.00,,---,0.44,VWS V14.01,2013-04-12 09:24:00,
2013-04-12 05:29:00,70.1,68.0,29.29,SSW,196,3.0,3.0,93,0.00,,---,0.44,VWS V14.01,2013-04-12 09:29:00,
2013-04-12 05:30:00,70.1,68.0,29.29,SSW,202,4.0,10.0,93,0.00,,---,0.83,VWS V14.01,2013-04-12 09:30:00,
2013-04-12 05:34:00,70.2,68.1,29.30,SSW,202,9.0,9.0,93,0.00,,---,0.44,VWS V14.01,2013-04-12 09:34:00,
2013-04-12 05:39:00,70.2,68.1,29.29,South,180,4.0,9.0,93,0.00,,---,0.44,VWS V14.01,2013-04-12 09:39:00,
2013-04-12 05:44:00,70.3,68.2,29.29,SW,225,10.0,11.0,93,0.00,,---,0.44,VWS V14.01,2013-04-12 09:44:00,
2013-04-12 05:49:00,70.3,68.2,29.30,SW,227,3.0,11.0,93,0.00,,---,0.44,VWS V14.01,2013-04-12 09:49:00,
2013-04-12 05:54:00,70.3,68.2,29.30,SW,225,5.0,11.0,93,0.00,,---,0.44,VWS V14.01,2013-04-12 09:54:00,
2013-04-12 05:59:00,70.3,68.2,29.29,SSW,213,0.0,1.0,93,0.00,,---,0.44,VWS V14.01,2013-04-12 09:59:00,
2013-04-12 06:00:00,70.3,68.2,29.30,SSW,202,4.0,12.0,93,0.00,,---,0.83,VWS V14.01,2013-04-12 10:00:00,
2013-04-12 06:04:00,70.3,68.2,29.29,SSW,194,8.0,8.0,93,0.00,,---,0.44,VWS V14.01,2013-04-12 10:04:00,
2013-04-12 06:09:00,70.3,68.2,29.29,SSW,198,1.0,8.0,93,0.00,,---,0.44,VWS V14.01,2013-04-12 10:09:00,
2013-04-12 06:14:00,70.3,68.2,29.29,SSW,195,6.0,8.0,93,0.00,,---,0.44,VWS V14.01,2013-04-12 10:14:00,
2013-04-12 06:19:00,70.4,68.3,29.29,SSW,197,1.0,10.0,93,0.00,,---,0.44,VWS V14.01,2013-04-12 10:19:00,
2013-04-12 06:24:00,70.4,68.3,29.29,SSW,200,6.0,10.0,93,0.00,,---,0.44,VWS V14.01,2013-04-12 10:24:00,
2013-04-12 06:29:00,70.4,68.3,29.29,South,183,4.0,4.0,93,0.00,,---,0.44,VWS V14.01,2013-04-12 10:29:00,
2013-04-12 06:30:00,70.4,68.3,29.29,SSW,202,4.0,13.0,93,0.00,,---,0.83,VWS V14.01,2013-04-12 10:30:00,
2013-04-12 06:34:00,70.4,68.3,29.29,SSW,193,3.0,9.0,93,0.00,,---,0.44,VWS V14.01,2013-04-12 10:34:00,
2013-04-12 06:39:00,70.4,68.3,29.29,SW,217,3.0,9.0,93,0.00,,---,0.44,VWS V14.01,2013-04-12 10:39:00,
2013-04-12 06:44:00,70.4,68.3,29.29,SSW,192,1.0,9.0,93,0.00,,---,0.44,VWS V14.01,2013-04-12 10:44:00,
2013-04-12 06:49:00,70.4,68.3,29.29,SSW,200,5.0,9.0,93,0.00,,---,0.44,VWS V14.01,2013-04-12 10:49:00,
2013-04-12 06:54:00,70.4,68.3,29.29,SW,223,6.0,9.0,93,0.00,,---,0.44,VWS V14.01,2013-04-12 10:54:00,
2013-04-12 06:59:00,70.5,68.4,29.29,SSW,194,3.0,4.0,93,0.00,,---,0.44,VWS V14.01,2013-04-12 10:59:00,
2013-04-12 07:00:00,70.5,68.4,29.29,SSW,202,3.0,9.0,93,0.00,,---,0.83,VWS V14.01,2013-04-12 11:00:00,
2013-04-12 07:04:00,70.6,68.5,29.29,SSE,155,1.0,5.0,93,0.00,,---,0.44,VWS V14.01,2013-04-12 11:04:00,
2013-04-12 07:09:00,70.6,68.5,29.29,SSW,194,7.0,7.0,93,0.00,,---,0.44,VWS V14.01,2013-04-12 11:09:00,
2013-04-12 07:14:00,70.6,68.5,29.30,NW,325,2.0,8.0,93,0.00,,---,0.44,VWS V14.01,2013-04-12 11:14:00,
2013-04-12 07:19:00,70.2,67.8,29.30,West,272,0.0,8.0,92,0.05,,---,0.49,VWS V14.01,2013-04-12 11:19:00,
2013-04-12 07:24:00,69.6,67.2,29.31,West,270,3.0,9.0,92,0.08,,---,0.52,VWS V14.01,2013-04-12 11:24:00,
2013-04-12 07:29:00,69.1,67.0,29.31,WSW,256,0.0,0.0,93,0.11,,---,0.55,VWS V14.01,2013-04-12 11:29:00,
2013-04-12 07:30:00,69.1,67.0,29.31,West,270,3.0,10.0,93,0.11,,---,0.94,VWS V14.01,2013-04-12 11:30:00,
2013-04-12 07:34:00,68.8,66.7,29.31,West,267,0.0,3.0,93,0.11,,---,0.55,VWS V14.01,2013-04-12 11:34:00,
2013-04-12 07:39:00,68.5,66.7,29.31,WNW,287,2.0,7.0,94,0.11,,---,0.55,VWS V14.01,2013-04-12 11:39:00,
2013-04-12 07:44:00,68.4,66.6,29.32,West,278,0.0,7.0,94,0.11,,---,0.55,VWS V14.01,2013-04-12 11:44:00,
2013-04-12 07:49:00,68.3,66.5,29.32,West,272,1.0,7.0,94,0.11,,---,0.55,VWS V14.01,2013-04-12 11:49:00,
2013-04-12 07:54:00,68.2,66.4,29.32,WSW,258,0.0,7.0,94,0.11,,---,0.55,VWS V14.01,2013-04-12 11:54:00,
2013-04-12 07:59:00,68.1,66.3,29.33,West,273,2.0,4.0,94,0.11,,---,0.55,VWS V14.01,2013-04-12 11:59:00,
2013-04-12 08:00:00,68.1,66.3,29.33,West,270,1.0,7.0,94,0.11,,---,0.94,VWS V14.01,2013-04-12 12:00:00,
2013-04-12 08:04:00,68.0,66.2,29.33,WSW,239,1.0,4.0,94,0.11,,---,0.55,VWS V14.01,2013-04-12 12:04:00,
2013-04-12 08:30:00,67.7,66.2,29.33,WSW,248,1.0,5.0,95,0.11,,---,0.94,VWS V14.01,2013-04-12 12:30:00,
2013-04-12 09:00:00,67.2,65.7,29.35,West,270,1.0,8.0,95,0.00,,---,0.94,VWS V14.01,2013-04-12 13:00:00,
2013-04-12 09:30:00,66.7,63.7,29.36,West,270,2.0,10.0,90,0.00,,---,0.94,VWS V14.01,2013-04-12 13:30:00,
2013-04-12 10:00:00,67.9,62.9,29.36,West,270,3.0,12.0,84,0.00,,---,0.94,VWS V14.01,2013-04-12 14:00:00,
2013-04-12 10:30:00,69.3,63.2,29.38,West,270,2.0,11.0,81,0.00,,---,0.94,VWS V14.01,2013-04-12 14:30:00,
2013-04-12 11:00:00,66.7,61.0,29.40,WNW,292,3.0,15.0,82,0.00,,---,0.94,VWS V14.01,2013-04-12 15:00:00,
2013-04-12 11:30:00,68.3,62.2,29.40,West,270,2.0,11.0,81,0.00,,---,0.94,VWS V14.01,2013-04-12 15:30:00,
2013-04-12 12:00:00,70.0,61.3,29.41,West,270,3.0,13.0,74,0.00,,---,0.94,VWS V14.01,2013-04-12 16:00:00,
2013-04-12 12:30:00,71.5,60.8,29.41,WSW,248,3.0,11.0,69,0.00,,---,0.94,VWS V14.01,2013-04-12 16:30:00,
2013-04-12 13:00:00,72.5,57.4,29.41,West,270,3.0,11.0,59,0.00,,---,0.94,VWS V14.01,2013-04-12 17:00:00,
2013-04-12 13:30:00,73.8,55.6,29.40,West,270,3.0,14.0,53,0.00,,---,0.94,VWS V14.01,2013-04-12 17:30:00,
2013-04-12 14:00:00,74.6,54.2,29.40,West,270,4.0,11.0,49,0.00,,---,0.94,VWS V14.01,2013-04-12 18:00:00,
2013-04-12 14:30:00,75.6,53.4,29.40,West,270,4.0,12.0,46,0.00,,---,0.94,VWS V14.01,2013-04-12 18:30:00,
2013-04-12 15:00:00,76.7,53.8,29.39,West,270,3.0,13.0,45,0.00,,---,0.94,VWS V14.01,2013-04-12 19:00:00,
2013-04-12 15:30:00,76.8,48.6,29.38,West,270,5.0,15.0,37,0.00,,---,0.94,VWS V14.01,2013-04-12 19:30:00,
2013-04-12 16:00:00,77.0,46.5,29.38,West,270,5.0,15.0,34,0.00,,---,0.94,VWS V14.01,2013-04-12 20:00:00,
2013-04-12 16:30:00,77.2,45.9,29.38,WNW,292,4.0,19.0,33,0.00,,---,0.94,VWS V14.01,2013-04-12 20:30:00,
2013-04-12 17:00:00,76.7,44.7,29.39,West,270,4.0,15.0,32,0.00,,---,0.94,VWS V14.01,2013-04-12 21:00:00,
2013-04-12 17:30:00,76.0,44.8,29.39,NW,315,3.0,12.0,33,0.00,,---,0.94,VWS V14.01,2013-04-12 21:30:00,
2013-04-12 18:00:00,75.3,45.8,29.39,NW,315,4.0,15.0,35,0.00,,---,0.94,VWS V14.01,2013-04-12 22:00:00,
2013-04-12 18:30:00,74.0,46.1,29.38,NW,315,3.0,12.0,37,0.00,,---,0.94,VWS V14.01,2013-04-12 22:30:00,
2013-04-12 19:00:00,73.2,44.7,29.40,NW,315,2.0,10.0,36,0.00,,---,0.94,VWS V14.01,2013-04-12 23:00:00,
2013-04-12 19:30:00,71.4,46.5,29.42,WNW,292,2.0,12.0,41,0.00,,---,0.94,VWS V14.01,2013-04-12 23:30:00,
2013-04-12 20:00:00,69.4,46.6,29.42,West,270,1.0,8.0,44,0.00,,---,0.94,VWS V14.01,2013-04-13 00:00:00,
2013-04-12 20:30:00,67.8,46.3,29.43,West,270,1.0,7.0,46,0.00,,---,0.94,VWS V14.01,2013-04-13 00:30:00,
2013-04-12 21:00:00,66.4,45.6,29.44,WSW,248,0.0,4.0,47,0.00,,---,0.94,VWS V14.01,2013-04-13 01:00:00,
2013-04-12 21:30:00,65.2,46.1,29.45,WSW,248,0.0,3.0,50,0.00,,---,0.94,VWS V14.01,2013-04-13 01:30:00,
2013-04-12 22:00:00,64.1,46.1,29.46,West,270,0.0,2.0,52,0.00,,---,0.94,VWS V14.01,2013-04-13 02:00:00,
2013-04-12 22:30:00,63.0,46.6,29.48,West,270,0.0,2.0,55,0.00,,---,0.94,VWS V14.01,2013-04-13 02:30:00,
2013-04-12 23:00:00,61.5,47.5,29.49,West,270,0.0,0.0,60,0.00,,---,0.94,VWS V14.01,2013-04-13 03:00:00,
2013-04-12 23:30:00,60.4,47.3,29.50,West,270,0.0,1.0,62,0.00,,---,0.94,VWS V14.01,2013-04-13 03:30:00,